Ypsilanti, MI

9:40 PM EDT on April 24, 2017 (GMT -0400)
Willow Run

Weather History for KYIP - July, 2012

Change the Weather History Date:

Sunday, July 29, 2012

  Actual Average Record
Temperature  
Mean Temperature 74 °F -  
Max Temperature 90 °F 82 °F 97 °F (2015)
Min Temperature 59 °F 62 °F 51 °F (1984)
Cooling Degree Days 8    
Growing Degree Days 24 (Base 50)    
Moisture  
Dew Point 55 °F    
Average Humidity 55    
Maximum Humidity 83    
Minimum Humidity 28    
Precipitation  
Precipitation 0.00 in - - ()
Sea Level Pressure  
Sea Level Pressure 30.06 in    
Wind  
Wind Speed 2 mph (East)    
Max Wind Speed 8 mph    
Max Gust Speed -    
Visibility 10 miles    
Events      
Averages and records for this station are not official NWS values.
T = Trace of Precipitation, MM = Missing Value Source: NWS Daily Summary

Daily Weather History Graph

Daily Weather History Graph

Search for Another Location

Airport or City:

Trip Planner

Search our weather history database for the weather conditions in past years. The results will help you decide how hot, cold, wet, or windy it might be!

Date:

Astronomy

Jul. 29, 2012 Rise Set
Actual Time 6:24 AM EDT 8:56 PM EDT
Civil Twilight 5:52 AM EDT 9:27 PM EDT
Nautical Twilight 5:12 AM EDT 10:07 PM EDT
Astronomical Twilight 4:27 AM EDT 10:52 PM EDT
Moon 6:02 PM EDT (7/29) 2:36 AM EDT (7/29)
Length of Visible Light 15h 35m
Length of Day
14h 31m
Waxing Gibbous, 85% of the Moon is Illuminated
Jul 29
Waxing Gibbous
Aug 1
Full
Aug 9
Last Quarter
Aug 17
New
Aug 24
First Quarter

Hourly Weather History & Observations

Time (EDT) Temp. Heat Index Dew Point Humidity Pressure Visibility Wind Dir Wind Speed Gust Speed Precip Events Conditions
12:53 AM 66.0 °F - 57.0 °F 73% 30.08 in 10.0 mi Calm Calm - N/A   Clear
1:53 AM 63.0 °F - 55.9 °F 78% 30.07 in 10.0 mi Calm Calm - N/A   Clear
2:53 AM 63.0 °F - 57.0 °F 81% 30.07 in 10.0 mi Calm Calm - N/A   Clear
3:53 AM 63.0 °F - 57.0 °F 81% 30.07 in 10.0 mi Calm Calm - N/A   Clear
4:53 AM 61.0 °F - 55.9 °F 83% 30.07 in 10.0 mi WNW 3.5 mph - N/A   Clear
5:53 AM 62.1 °F - 55.0 °F 78% 30.09 in 10.0 mi Calm Calm - N/A   Clear
6:53 AM 59.0 °F - 54.0 °F 83% 30.10 in 10.0 mi Calm Calm - N/A   Clear
7:53 AM 64.0 °F - 57.0 °F 78% 30.11 in 10.0 mi Calm Calm - N/A   Clear
8:53 AM 72.0 °F - 57.9 °F 61% 30.12 in 10.0 mi Calm Calm - N/A   Clear
9:53 AM 79.0 °F - 55.9 °F 45% 30.11 in 10.0 mi Calm Calm - N/A   Clear
10:53 AM 82.9 °F 81.9 °F 54.0 °F 37% 30.11 in 10.0 mi North 3.5 mph - N/A   Clear
11:53 AM 82.9 °F - 52.0 °F 34% 30.10 in 10.0 mi Calm Calm - N/A   Partly Cloudy
12:53 PM 82.9 °F - 51.1 °F 33% 30.09 in 10.0 mi WNW 3.5 mph - N/A   Scattered Clouds
1:53 PM 84.9 °F - 52.0 °F 32% 30.07 in 10.0 mi NE 5.8 mph - N/A   Mostly Cloudy
2:53 PM 88.0 °F - 51.1 °F 28% 30.05 in 10.0 mi South 4.6 mph - N/A   Clear
3:53 PM 87.1 °F - 50.0 °F 28% 30.04 in 10.0 mi North 4.6 mph - N/A   Mostly Cloudy
4:53 PM 86.0 °F - 52.0 °F 31% 30.03 in 10.0 mi NE 4.6 mph - N/A   Mostly Cloudy
5:53 PM 84.9 °F 83.3 °F 54.0 °F 34% 30.02 in 10.0 mi SE 6.9 mph - N/A   Mostly Cloudy
6:53 PM 84.9 °F 83.7 °F 55.9 °F 37% 30.01 in 10.0 mi SSE 6.9 mph - N/A   Clear
7:53 PM 82.9 °F 82.6 °F 57.9 °F 42% 30.01 in 10.0 mi SE 8.1 mph - N/A   Partly Cloudy
8:53 PM 77.0 °F - 57.0 °F 50% 30.02 in 10.0 mi SE 8.1 mph - N/A   Clear
9:53 PM 75.0 °F - 59.0 °F 57% 30.02 in 10.0 mi SE 8.1 mph - N/A   Clear
10:53 PM 73.0 °F - 59.0 °F 61% 30.03 in 10.0 mi Calm Calm - N/A   Clear
11:53 PM 69.1 °F - 59.0 °F 70% 30.03 in 10.0 mi Calm Calm - N/A   Clear